Tracking 19219 objects as of 22-Jul-2018
HD Live streaming from Space Station
objects crossing your sky now

COSMOS 1197

Track COSMOS 1197 now!
10-day predictions
COSMOS 1197 is classified as:


NORAD ID: 11880
Int'l Code: 1980-058F
Perigee: 1,478.2 km
Apogee: 1,498.9 km
Inclination: 74.0 °
Period: 115.6 minutes
Semi major axis: 7859 km
RCS: 0.6693 m2 (medium)
Launch date: July 9, 1980
Source: Commonwealth of Independent States (former USSR) (CIS)
Launch site: PLESETSK MISSILE AND SPACE COMPLEX (PKMTR)
aabbcc
Your satellite tracking list
Your tracking list is empty




NASA's NSSDC Master Catalog

Two Line Element Set (TLE):
1 11880U 80058F   18202.54165302 -.00000014 +00000-0 +11927-4 0  9998
2 11880 074.0199 334.4643 0013164 045.1902 029.0764 12.45968396729899
Source of the keplerian elements: AFSPC